SCP
0 0 0 0 0 0 0 0 0 0 -0 0 0 0 0 0 0 0 0 0 0 0
0 0 0 0 0 0 0 0 0 -0 -0 0 0 0 0 0 0 0 0 0 0 0
0 0 0 0 0 -0 0 0 -0 0 0 0 0 0 0 0 0 0 0 0 0 0
0 0 -0 -0 -0 0 0 0 0 0 0 0 0 0 0 0 0 0 0 0 0 0
0 0 0 0 0 0 0 -0 -0 0 0 0 0 0 0 0 0 0 0 0 0 0
0 0 0 0 0 0 0 -0 0 0 0 0 0 0 0 0 0 0 0 0 0 0
0 0 0 0 0 0 0 0 0 0 0 0 0 0 0 0 0 0 0 0 0 0
0 0 0 0 0 0 0 0 0 0 0 0 0 0 0 0 0 0 0 0 0 0
0 0 0 0 0 0 0 0 0 0 0 0 0 0 0 0 0 0 0 0 0 0
0 0 0 0 0 0 0 0 0 0 0 0 0 0 0 0 0 0 0 0 0 0
0 0 0 0 0 0 0 0 0 0 0 0 0 0 0 0 0 0 0 0 0 0
0 0 0 0 0 0 0 0 0 0 0 0 0 0 0 0 0 0 0 0 0 0
0 0 0 0 0 0 0 0 0 0 0 0 0 0 0 0 0 0 0 0 0 0
0 0 0 0 0 0 0 0 0 0 0 0 0 0 0 0 0 0 0 0 0 0
Wind_Speed_500mb
17 12 14 16 17 11 14 12 8 5 11 2 4 5 2 2 4 4 7 11 12 15
13 18 13 21 15 9 9 4 5 3 4 5 8 7 2 2 3 4 6 8 7 14
9 11 8 25 21 13 9 11 9 7 5 6 6 4 3 0 2 3 3 5 4 4
9 16 27 22 19 15 19 19 14 12 6 7 6 4 3 5 2 2 5 8 9 10
16 20 16 14 11 14 15 16 18 12 11 14 15 12 10 7 6 6 8 12 12 12
25 22 15 12 13 14 16 17 12 12 11 13 13 13 15 16 12 8 9 12 12 13
34 22 17 12 15 15 14 16 16 15 12 11 12 10 12 12 12 12 11 12 12 14
24 20 16 15 16 14 13 16 14 13 11 6 8 6 7 8 9 12 11 12 12 10
23 20 18 18 17 16 16 18 14 12 6 3 6 3 3 3 5 8 11 13 13 13
28 23 18 17 14 15 12 15 18 12 6 3 6 3 2 1 1 3 4 7 8 11
33 25 22 18 13 13 15 14 12 17 14 8 8 6 4 3 3 2 1 2 2 4
35 32 27 21 17 14 17 23 17 19 17 16 10 11 10 9 7 5 4 5 2 2
36 33 30 26 24 17 19 24 23 20 21 19 19 17 19 17 16 12 5 4 5 6
32 31 28 27 28 27 25 30 30 26 27 26 24 20 22 24 24 19 13 8 9 11
Wind_Direction_500mb
232 228 243 228 194 193 216 200 266 298 327 283 179 134 110 210 191 232 251 256 260 246
214 249 234 208 206 202 193 200 160 289 6 43 113 110 79 14 56 28 8 340 273 237
215 312 154 176 166 172 158 146 142 122 72 59 132 135 116 301 300 351 350 19 48 177
180 120 113 145 160 167 149 152 144 147 100 98 137 154 243 262 266 94 83 87 96 111
196 162 146 161 149 149 161 149 147 135 127 105 98 84 74 76 140 118 104 89 84 89
192 192 193 187 176 173 163 153 160 145 130 102 87 80 76 74 98 111 92 87 93 90
182 179 173 166 172 174 176 176 168 146 132 110 94 81 81 80 81 83 84 87 85 84
182 180 167 164 175 178 182 181 166 144 133 130 111 90 68 73 75 71 70 80 89 96
178 177 159 168 167 171 179 188 181 163 146 165 143 156 90 101 72 78 81 77 86 92
180 174 170 179 174 169 179 212 201 191 188 178 181 206 128 116 29 77 83 61 67 73
185 183 181 196 203 193 207 224 252 233 221 215 212 233 226 211 232 247 239 318 1 32
193 197 198 199 212 228 235 236 260 234 238 233 232 258 249 254 234 241 281 272 242 226
205 209 217 222 224 232 241 246 249 244 238 235 239 251 244 247 244 241 265 255 256 233
211 217 219 226 231 236 243 243 249 251 238 236 238 244 252 250 251 251 254 268 268 260
Wind_Speed_850mb
17 12 14 16 17 11 14 12 8 5 11 2 4 5 2 2 4 4 7 11 12 15
13 18 13 21 15 9 9 4 5 3 4 5 8 7 2 2 3 4 6 8 7 14
9 11 8 25 21 13 9 11 9 7 5 6 6 4 3 0 2 3 3 5 4 4
9 16 27 22 19 15 19 19 14 12 6 7 6 4 3 5 2 2 5 8 9 10
16 20 16 14 11 14 15 16 18 12 11 14 15 12 10 7 6 6 8 12 12 12
25 22 15 12 13 14 16 17 12 12 11 13 13 13 15 16 12 8 9 12 12 13
34 22 17 12 15 15 14 16 16 15 12 11 12 10 12 12 12 12 11 12 12 14
24 20 16 15 16 14 13 16 14 13 11 6 8 6 7 8 9 12 11 12 12 10
23 20 18 18 17 16 16 18 14 12 6 3 6 3 3 3 5 8 11 13 13 13
28 23 18 17 14 15 12 15 18 12 6 3 6 3 2 1 1 3 4 7 8 11
33 25 22 18 13 13 15 14 12 17 14 8 8 6 4 3 3 2 1 2 2 4
35 32 27 21 17 14 17 23 17 19 17 16 10 11 10 9 7 5 4 5 2 2
36 33 30 26 24 17 19 24 23 20 21 19 19 17 19 17 16 12 5 4 5 6
32 31 28 27 28 27 25 30 30 26 27 26 24 20 22 24 24 19 13 8 9 11
Wind_Direction_850mb
232 228 243 228 194 193 216 200 266 298 327 283 179 134 110 210 191 232 251 256 260 246
214 249 234 208 206 202 193 200 160 289 6 43 113 110 79 14 56 28 8 340 273 237
215 312 154 176 166 172 158 146 142 122 72 59 132 135 116 301 300 351 350 19 48 177
180 120 113 145 160 167 149 152 144 147 100 98 137 154 243 262 266 94 83 87 96 111
196 162 146 161 149 149 161 149 147 135 127 105 98 84 74 76 140 118 104 89 84 89
192 192 193 187 176 173 163 153 160 145 130 102 87 80 76 74 98 111 92 87 93 90
182 179 173 166 172 174 176 176 168 146 132 110 94 81 81 80 81 83 84 87 85 84
182 180 167 164 175 178 182 181 166 144 133 130 111 90 68 73 75 71 70 80 89 96
178 177 159 168 167 171 179 188 181 163 146 165 143 156 90 101 72 78 81 77 86 92
180 174 170 179 174 169 179 212 201 191 188 178 181 206 128 116 29 77 83 61 67 73
185 183 181 196 203 193 207 224 252 233 221 215 212 233 226 211 232 247 239 318 1 32
193 197 198 199 212 228 235 236 260 234 238 233 232 258 249 254 234 241 281 272 242 226
205 209 217 222 224 232 241 246 249 244 238 235 239 251 244 247 244 241 265 255 256 233
211 217 219 226 231 236 243 243 249 251 238 236 238 244 252 250 251 251 254 268 268 260